Location: Ipswich
(52.0579°N, 1.1528°E)
Time: 09:32:13
(UTC+01:00)

ISS - Pass Details

Date: 07 May 2026
Orbit: 414 x 424 km, 51.6° (Epoch: 8 May)

Event Time Altitude Azimuth Distance (km) Brightness Sun altitude
Exits shadow 02:19:38 60° 254° (WSW) 485 -3.7 -18.6°
Maximum altitude 02:20:07 76° 190° (S) 436 -3.9 -18.5°
Drops below altitude 10° 02:23:29 10° 105° (ESE) 1,499 -0.9 -18.3°
Sets 02:25:35 0° 104° (ESE) 2,363 0.2 -18.2°
